EA1BQO-1 Weather Reports


time (UTC)temp
C
wind
direction
speed
KPH
gust
KPH
rain 1hr
cm
rain 24hr
cm
rain mn
cm
humidity
%
barometer
mb
20260905202300 21 111 6.4 12.9 0.00 0.00 0.00 65 1019.1
20260905201400 21 126 4.8 12.9 0.00 0.00 0.00 62 1019.2
20260905200500 22 132 6.4 12.9 0.00 0.00 0.00 61 1019.4
20260905195600 22 95 6.4 14.5 0.00 0.00 0.00 60 1019.3
20260905194700 23 136 4.8 12.9 0.00 0.00 0.00 54 1019.6
20260905193800 24 146 6.4 11.3 0.00 0.00 0.00 46 1019.4
20260905192900 25 56 3.2 4.8 0.00 0.00 0.00 35 1019.2
20260905192000 26 60 3.2 6.4 0.00 0.00 0.00 29 1019.3
20260905191100 27 52 3.2 6.4 0.00 0.00 0.00 25 1019.5
20260905190200 27 352 3.2 8.0 0.00 0.00 0.00 21 1019.3
20260905185300 28 282 1.6 17.7 0.00 0.00 0.00 19 1019.2
20260905184400 28 241 6.4 24.1 0.00 0.00 0.00 12 1019.2
20260905183500 28 226 9.7 17.7 0.00 0.00 0.00 11 1019.0
20260905182600 29 214 6.4 24.1 0.00 0.00 0.00 10 1018.8
20260905181700 29 215 8.0 22.5 0.00 0.00 0.00 10 1018.6
20260905180800 30 224 16.1 27.4 0.00 0.00 0.00 10 1018.3
20260905175900 30 167 8.0 33.8 0.00 0.00 0.00 10 1018.2
20260905175000 30 175 17.7 32.2 0.00 0.00 0.00 10 1018.0
20260905174100 31 200 9.7 32.2 0.00 0.00 0.00 10 1017.6
20260905173200 31 212 17.7 30.6 0.00 0.00 0.00 10 1017.1
20260905172300 32 209 3.2 14.5 0.00 0.00 0.00 10 1016.8
20260905171400 32 199 3.2 17.7 0.00 0.00 0.00 10 1016.9
20260905170500 32 143 4.8 19.3 0.00 0.00 0.00 10 1016.7
20260905165600 33 174 6.4 16.1 0.00 0.00 0.00 10 1017.0
20260905164700 33 209 3.2 17.7 0.00 0.00 0.00 10 1016.9
20260905163800 32 208 3.2 20.9 0.00 0.00 0.00 10 1016.9
20260905162900 32 185 6.4 17.7 0.00 0.00 0.00 10 1017.0
20260905162000 32 185 6.4 24.1 0.00 0.00 0.00 10 1016.9
20260905161100 32 183 11.3 24.1 0.00 0.00 0.00 10 1016.6
20260905160200 33 195 11.3 22.5 0.00 0.00 0.00 10 1016.7
20260905155300 33 174 8.0 22.5 0.00 0.00 0.00 10 1016.6
20260905154400 33 168 3.2 19.3 0.00 0.00 0.00 10 1016.7
20260905153500 33 192 6.4 16.1 0.00 0.00 0.00 10 1016.7
20260905152600 33 193 6.4 14.5 0.00 0.00 0.00 10 1016.7
20260905151700 33 178 4.8 16.1 0.00 0.00 0.00 10 1016.7
20260905150800 33 130 9.7 14.5 0.00 0.00 0.00 10 1016.8
20260905145900 33 140 6.4 17.7 0.00 0.00 0.00 10 1016.7
20260905145000 33 142 6.4 17.7 0.00 0.00 0.00 10 1016.7
20260905144100 33 138 8.0 17.7 0.00 0.00 0.00 10 1016.7
20260905143200 33 141 3.2 17.7 0.00 0.00 0.00 10 1016.7
20260905142300 33 129 6.4 20.9 0.00 0.00 0.00 10 1016.6
20260905141400 33 134 12.9 20.9 0.00 0.00 0.00 10 1016.6
20260905140500 33 144 6.4 17.7 0.00 0.00 0.00 10 1016.7
20260905135600 33 125 8.0 24.1 0.00 0.00 0.00 10 1016.8
20260905134700 34 120 12.9 24.1 0.00 0.00 0.00 10 1016.6
20260905133800 34 125 12.9 27.4 0.00 0.00 0.00 10 1016.7
20260905132900 34 109 17.7 27.4 0.00 0.00 0.00 10 1016.6
20260905132000 35 129 11.3 20.9 0.00 0.00 0.00 10 1016.6
20260905131100 35 145 9.7 20.9 0.00 0.00 0.00 10 1016.6
20260905130200 35 128 3.2 19.3 0.00 0.00 0.00 10 1016.7
20260905125300 35 120 4.8 22.5 0.00 0.00 0.00 10 1016.7
20260905124400 35 136 8.0 17.7 0.00 0.00 0.00 10 1016.7
20260905123500 34 114 6.4 17.7 0.00 0.00 0.00 10 1016.8
20260905122600 34 122 6.4 20.9 0.00 0.00 0.00 10 1016.7
20260905121700 34 114 6.4 20.9 0.00 0.00 0.00 10 1016.8
20260905120800 34 129 3.2 16.1 0.00 0.00 0.00 10 1016.7
20260905115900 34 88 6.4 24.1 0.00 0.00 0.00 10 1017.0
20260905115000 34 87 4.8 19.3 0.00 0.00 0.00 10 1017.0
20260905114100 34 108 11.3 19.3 0.00 0.00 0.00 10 1017.0
20260905113200 34 99 6.4 17.7 0.00 0.00 0.00 10 1017.0
20260905112300 35 101 6.4 19.3 0.00 0.00 0.00 10 1017.1
20260905111400 34 95 6.4 14.5 0.00 0.00 0.00 10 1017.3
20260905110500 34 108 3.2 16.1 0.00 0.00 0.00 10 1017.4
20260905105600 34 95 9.7 17.7 0.00 0.00 0.00 10 1017.4
20260905104700 33 93 6.4 17.7 0.00 0.00 0.00 10 1017.4
20260905103800 33 94 4.8 12.9 0.00 0.00 0.00 10 1017.5
20260905102900 31 295 6.4 12.9 0.00 0.00 0.00 16 1017.8
20260905102000 30 286 3.2 9.7 0.00 0.00 0.00 24 1018.0
20260905101100 30 311 3.2 6.4 0.00 0.00 0.00 22 1017.9
20260905100200 30 301 3.2 6.4 0.00 0.00 0.00 25 1018.0
20260905095300 29 324 1.6 6.4 0.00 0.00 0.00 28 1018.0
20260905094400 28 347 0.0 4.8 0.00 0.00 0.00 30 1018.1
20260905093500 27 279 3.2 6.4 0.00 0.00 0.00 32 1018.2
20260905092600 27 311 3.2 6.4 0.00 0.00 0.00 34 1018.1
20260905091700 26 83 3.2 6.4 0.00 0.00 0.00 37 1018.3
20260905090800 25 264 0.0 4.8 0.00 0.00 0.00 39 1018.3
20260905085900 24 218 0.0 3.2 0.00 0.00 0.00 42 1018.6
20260905085000 23 334 0.0 3.2 0.00 0.00 0.00 45 1018.6
20260905084100 23 353 1.6 3.2 0.00 0.00 0.00 48 1018.6
20260905083200 22 306 0.0 3.2 0.00 0.00 0.00 50 1018.8
20260905082300 22 309 0.0 3.2 0.00 0.00 0.00 51 1018.6
20260905081400 21 317 1.6 3.2 0.00 0.00 0.00 55 1018.7
20260905080500 21 335 0.0 3.2 0.00 0.00 0.00 58 1018.9
20260905075600 20 316 0.0 3.2 0.00 0.00 0.00 61 1019.0
20260905074700 20 324 0.0 3.2 0.00 0.00 0.00 60 1018.9
20260905073800 20 358 0.0 3.2 0.00 0.00 0.00 60 1018.9
20260905072900 20 0 0.0 0.0 0.00 0.00 0.00 62 1018.7
20260905072000 19 0 0.0 0.0 0.00 0.00 0.00 61 1018.8
20260905071100 19 0 0.0 0.0 0.00 0.00 0.00 61 1018.7
20260905070200 19 181 0.0 1.6 0.00 0.00 0.00 60 1018.8
20260905065300 19 225 0.0 3.2 0.00 0.00 0.00 59 1018.7
20260905064400 19 265 1.6 3.2 0.00 0.00 0.00 59 1018.8
20260905063500 20 278 1.6 3.2 0.00 0.00 0.00 57 1018.7
20260905062600 20 215 1.6 3.2 0.00 0.00 0.00 55 1018.6
20260905061700 20 136 0.0 4.8 0.00 0.00 0.00 54 1018.7
20260905060800 20 135 3.2 6.4 0.00 0.00 0.00 54 1018.8
20260905055900 20 123 3.2 6.4 0.00 0.00 0.00 55 1018.8
20260905055000 20 97 0.0 6.4 0.00 0.00 0.00 56 1018.6
20260905054100 20 34 1.6 3.2 0.00 0.00 0.00 56 1018.8
20260905053200 19 80 0.0 3.2 0.00 0.00 0.00 57 1018.8
20260905052300 19 103 1.6 8.0 0.00 0.00 0.00 58 1019.0
20260905051400 19 92 3.2 6.4 0.00 0.00 0.00 60 1019.1
20260905050500 19 8 3.2 6.4 0.00 0.00 0.00 57 1019.1
20260905045600 19 28 3.2 3.2 0.00 0.00 0.00 56 1019.3
20260905044700 19 54 1.6 4.8 0.00 0.00 0.00 56 1019.4
20260905043800 19 79 0.0 4.8 0.00 0.00 0.00 56 1019.5
20260905042900 19 86 1.6 6.4 0.00 0.00 0.00 58 1019.6
20260905042000 19 82 1.6 6.4 0.00 0.00 0.00 58 1019.5
20260905041100 19 79 3.2 6.4 0.00 0.00 0.00 58 1019.5
20260905040200 19 54 0.0 4.8 0.00 0.00 0.00 58 1019.6
20260905035300 19 46 1.6 6.4 0.00 0.00 0.00 57 1019.6
20260905034400 19 73 1.6 8.0 0.00 0.00 0.00 58 1019.6
20260905033500 19 78 3.2 8.0 0.00 0.00 0.00 59 1019.5
20260905032600 18 71 3.2 9.7 0.00 0.00 0.00 60 1019.4
20260905031700 18 62 0.0 4.8 0.00 0.00 0.00 62 1019.4
20260905030800 18 0 0.0 0.0 0.00 0.00 0.00 62 1019.4
20260905025900 18 0 0.0 0.0 0.00 0.00 0.00 62 1019.4
20260905025000 18 358 0.0 1.6 0.00 0.00 0.00 61 1019.5
20260905024100 18 239 0.0 4.8 0.00 0.00 0.00 61 1019.3
20260905023200 18 130 1.6 6.4 0.00 0.00 0.00 62 1019.3
20260905022300 18 146 3.2 6.4 0.00 0.00 0.00 62 1019.3
20260905021400 18 181 1.6 3.2 0.00 0.00 0.00 59 1019.4
20260905020500 18 181 0.0 3.2 0.00 0.00 0.00 56 1019.3
20260905015600 19 93 0.0 3.2 0.00 0.00 0.00 56 1019.1
20260905014700 19 99 0.0 3.2 0.00 0.00 0.00 55 1019.1
20260905013759 20 88 1.6 6.4 0.00 0.00 0.00 54 1019.1
20260905012900 20 56 0.0 4.8 0.00 0.00 0.00 53 1019.0
20260905011959 20 62 1.6 6.4 0.00 0.00 0.00 53 1019.2
20260905011100 20 67 3.2 6.4 0.00 0.00 0.00 53 1019.1
20260905010159 20 85 1.6 6.4 0.00 0.00 0.00 55 1019.1
20260905005300 20 67 3.2 6.4 0.00 0.00 0.00 54 1018.9
20260905004359 20 104 3.2 6.4 0.00 0.00 0.00 53 1019.5
20260905003500 20 61 3.2 6.4 0.00 0.00 0.00 52 1019.5
20260905002600 20 128 0.0 9.7 0.00 0.00 0.00 53 1019.9
20260905001659 20 109 4.8 9.7 0.00 0.00 0.00 55 1019.6
20260905000759 20 91 3.2 4.8 0.00 0.00 0.00 56 1019.9
20260904235859 19 118 1.6 4.8 0.00 0.00 0.00 56 1020.1
20260904234959 19 117 3.2 6.4 0.00 0.00 0.00 58 1020.3
20260904234059 19 121 1.6 3.2 0.00 0.00 0.00 58 1020.1
20260904233200 19 97 0.0 3.2 0.00 0.00 0.00 57 1020.2
20260904232300 19 101 1.6 3.2 0.00 0.00 0.00 56 1020.5
20260904231359 20 219 0.0 3.2 0.00 0.00 0.00 54 1020.4
20260904230459 20 189 1.6 3.2 0.00 0.00 0.00 53 1020.2
20260904225600 20 118 3.2 4.8 0.00 0.00 0.00 53 1020.0
20260904224659 20 71 1.6 4.8 0.00 0.00 0.00 51 1019.9
20260904223759 20 74 1.6 3.2 0.00 0.00 0.00 49 1019.9
20260904222859 21 137 0.0 4.8 0.00 0.00 0.00 49 1019.8
20260904221959 21 143 0.0 4.8 0.00 0.00 0.00 49 1019.7
20260904221059 21 107 0.0 3.2 0.00 0.00 0.00 48 1019.6
20260904220159 21 106 1.6 6.4 0.00 0.00 0.00 48 1019.7
20260904215259 21 119 4.8 6.4 0.00 0.00 0.00 49 1019.6
20260904214359 21 91 1.6 4.8 0.00 0.00 0.00 45 1019.9
20260904213459 21 111 1.6 3.2 0.00 0.00 0.00 44 1019.9
20260904212559 21 90 0.0 3.2 0.00 0.00 0.00 43 1019.8
20260904211659 22 93 0.0 3.2 0.00 0.00 0.00 43 1020.0
20260904210759 22 83 1.6 3.2 0.00 0.00 0.00 39 1020.0
20260904205859 22 106 0.0 4.8 0.00 0.00 0.00 39 1020.0
20260904204959 23 146 3.2 6.4 0.00 0.00 0.00 37 1019.8
20260904204059 23 134 3.2 6.4 0.00 0.00 0.00 36 1019.8
20260904203159 24 90 3.2 4.8 0.00 0.00 0.00 36 1019.8